SPJ1122 KDPA-KSLN

Flight info

Callsign SPJ1122
Flight time 1h 13m
Altitude 43000
Route OBENE3 ELYNA JSONN
Aircraft C750/M-SBDE3FGHRWXY/S

Departure

Time 2026-05-04 11:50
Airport Dupage Airport (KDPA)

Arrival

Time 2026-05-04 13:03
Airport Salina Municipal Airport (KSLN)
Time Latitude Longitude Altitude Speed Heading
2026-05-04 11:29 41.90780 -88.25465 760 ft 0 kts 227°
2026-05-04 11:40 41.90773 -88.25468 760 ft 2 kts 187°
2026-05-04 11:41 41.90764 -88.25459 757 ft 2 kts 123°
2026-05-04 11:41 41.90759 -88.25420 759 ft 6 kts 67°
2026-05-04 11:41 41.90801 -88.25413 758 ft 7 kts 347°
2026-05-04 11:41 41.90842 -88.25441 757 ft 7 kts 320°
2026-05-04 11:42 41.90876 -88.25487 760 ft 7 kts 313°
2026-05-04 11:42 41.90908 -88.25534 760 ft 6 kts 317°
2026-05-04 11:42 41.90948 -88.25546 760 ft 6 kts 358°
2026-05-04 11:42 41.90997 -88.25547 759 ft 9 kts 358°
2026-05-04 11:43 41.91066 -88.25549 758 ft 11 kts 358°
2026-05-04 11:43 41.91128 -88.25511 760 ft 10 kts 79°
2026-05-04 11:43 41.91122 -88.25428 760 ft 8 kts 98°
2026-05-04 11:43 41.91116 -88.25350 760 ft 10 kts 95°
2026-05-04 11:44 41.91111 -88.25249 760 ft 11 kts 94°
2026-05-04 11:44 41.91106 -88.25155 761 ft 9 kts 74°
2026-05-04 11:44 41.91157 -88.25117 758 ft 9 kts
2026-05-04 11:44 41.91217 -88.25108 761 ft 8 kts
2026-05-04 11:45 41.91272 -88.25099 760 ft 8 kts
2026-05-04 11:45 41.91334 -88.25089 758 ft 11 kts
2026-05-04 11:45 41.91405 -88.25079 761 ft 10 kts
2026-05-04 11:45 41.91437 -88.25023 761 ft 8 kts 96°
2026-05-04 11:46 41.91432 -88.24956 761 ft 7 kts 95°
2026-05-04 11:46 41.91428 -88.24895 759 ft 6 kts 95°
2026-05-04 11:46 41.91425 -88.24839 761 ft 6 kts 97°
2026-05-04 11:46 41.91420 -88.24788 761 ft 5 kts 96°
2026-05-04 11:47 41.91420 -88.24787 761 ft 0 kts 96°
2026-05-04 11:48 41.91418 -88.24762 761 ft 4 kts 97°
2026-05-04 11:48 41.91412 -88.24711 760 ft 7 kts 106°
2026-05-04 11:49 41.91383 -88.24694 760 ft 4 kts 192°
2026-05-04 11:49 41.91377 -88.24695 760 ft 2 kts 191°
2026-05-04 11:49 41.91076 -88.24789 763 ft 99 kts 194°
2026-05-04 11:49 41.90212 -88.25076 1036 ft 138 kts 192°
2026-05-04 11:50 41.89266 -88.25404 1732 ft 141 kts 205°
2026-05-04 11:50 41.88502 -88.26184 2404 ft 145 kts 230°
2026-05-04 11:50 41.87877 -88.27318 2992 ft 160 kts 245°
2026-05-04 11:50 41.87774 -88.28912 3571 ft 182 kts 274°
2026-05-04 11:51 41.87856 -88.30551 4761 ft 169 kts 269°
2026-05-04 11:51 41.87895 -88.32165 5646 ft 175 kts 269°
2026-05-04 11:51 41.87923 -88.33863 6280 ft 196 kts 268°
2026-05-04 11:51 41.87941 -88.35791 6875 ft 216 kts 269°
2026-05-04 11:52 41.87981 -88.37863 7703 ft 228 kts 270°
2026-05-04 11:52 41.88079 -88.40026 8697 ft 235 kts 272°
2026-05-04 11:52 41.88166 -88.42224 9789 ft 236 kts 271°
2026-05-04 11:52 41.88214 -88.44395 10885 ft 229 kts 271°
2026-05-04 11:53 41.88270 -88.46575 11572 ft 243 kts 272°
2026-05-04 11:53 41.88346 -88.48977 11835 ft 271 kts 272°
2026-05-04 11:53 41.88419 -88.51632 12094 ft 295 kts 272°
2026-05-04 11:53 41.88486 -88.54388 13058 ft 294 kts 272°
2026-05-04 11:55 41.88990 -88.74476 18300 ft 324 kts 272°
2026-05-04 11:55 41.89064 -88.77522 19024 ft 328 kts 272°
2026-05-04 11:56 41.89137 -88.80599 19778 ft 332 kts 272°
2026-05-04 11:56 41.89210 -88.83716 20534 ft 336 kts 272°
2026-05-04 11:56 41.89284 -88.86871 21280 ft 340 kts 272°
2026-05-04 11:56 41.89356 -88.90029 22013 ft 344 kts 272°
2026-05-04 11:57 41.89430 -88.93258 22746 ft 349 kts 272°
2026-05-04 11:57 41.89503 -88.96537 23449 ft 353 kts 272°
2026-05-04 11:57 41.89577 -88.99852 24071 ft 357 kts 272°
2026-05-04 11:57 41.89650 -89.03204 24697 ft 361 kts 272°
2026-05-04 11:58 41.89723 -89.06601 25320 ft 365 kts 272°
2026-05-04 11:58 41.89796 -89.10021 25945 ft 369 kts 272°
2026-05-04 11:58 41.89869 -89.13479 26569 ft 373 kts 272°
2026-05-04 11:58 41.89941 -89.16970 27203 ft 376 kts 272°
2026-05-04 11:59 41.89997 -89.20514 27824 ft 381 kts 271°
2026-05-04 11:59 41.89721 -89.24075 28406 ft 387 kts 264°
2026-05-04 11:59 41.89358 -89.27626 29070 ft 390 kts 265°
2026-05-04 11:59 41.89023 -89.31273 29689 ft 395 kts 265°
2026-05-04 12:00 41.88680 -89.34958 30234 ft 399 kts 265°
2026-05-04 12:00 41.88313 -89.38660 30827 ft 402 kts 264°
2026-05-04 12:00 41.87942 -89.42370 31574 ft 399 kts 265°
2026-05-04 12:00 41.87583 -89.46058 32430 ft 395 kts 265°
2026-05-04 12:01 41.87231 -89.49692 33250 ft 392 kts 265°
2026-05-04 12:01 41.86875 -89.53306 34029 ft 389 kts 265°
2026-05-04 12:02 41.84169 -89.74220 38047 ft 378 kts 250°
2026-05-04 12:03 41.83004 -89.77393 38657 ft 377 kts 246°
2026-05-04 12:03 41.81828 -89.80533 39104 ft 377 kts 247°
2026-05-04 12:03 41.80663 -89.83689 39507 ft 378 kts 247°
2026-05-04 12:03 41.79491 -89.86839 39909 ft 379 kts 247°
2026-05-04 12:04 41.78304 -89.89998 40314 ft 379 kts 247°
2026-05-04 12:04 41.77133 -89.93118 40700 ft 380 kts 247°
2026-05-04 12:04 41.75946 -89.96289 41111 ft 381 kts 248°
2026-05-04 12:04 41.74760 -89.99455 41518 ft 381 kts 248°
2026-05-04 12:05 41.73567 -90.02629 41914 ft 382 kts 248°
2026-05-04 12:05 41.72371 -90.05807 42305 ft 382 kts 248°
2026-05-04 12:05 41.71174 -90.08987 42695 ft 383 kts 248°
2026-05-04 12:05 41.69962 -90.12209 42711 ft 393 kts 248°
2026-05-04 12:06 41.67444 -90.18882 42750 ft 408 kts 247°
2026-05-04 12:06 41.64833 -90.25778 42752 ft 421 kts 247°
2026-05-04 12:07 41.62600 -90.31667 42742 ft 431 kts 247°
2026-05-04 12:07 41.59861 -90.38872 42733 ft 443 kts 247°
2026-05-04 12:08 41.57030 -90.46299 42737 ft 453 kts 247°
2026-05-04 12:08 41.54138 -90.53869 42741 ft 461 kts 247°
2026-05-04 12:09 41.51209 -90.61515 42737 ft 467 kts 246°
2026-05-04 12:09 41.48233 -90.69261 42743 ft 471 kts 246°
2026-05-04 12:10 41.45239 -90.77035 42735 ft 473 kts 246°
2026-05-04 12:10 41.42232 -90.84823 42739 ft 475 kts 246°
2026-05-04 12:11 41.39195 -90.92665 42746 ft 476 kts 246°
2026-05-04 12:11 41.36156 -91.00495 42752 ft 476 kts 246°
2026-05-04 12:12 41.33112 -91.08313 42751 ft 475 kts 246°
2026-05-04 12:12 41.30067 -91.16116 42744 ft 475 kts 246°
2026-05-04 12:14 41.17892 -91.47105 42722 ft 473 kts 246°
2026-05-04 12:15 41.14834 -91.54837 42711 ft 473 kts 246°
2026-05-04 12:15 41.11768 -91.62568 42715 ft 473 kts 246°
2026-05-04 12:16 41.08703 -91.70278 42720 ft 473 kts 246°
2026-05-04 12:16 41.05629 -91.77992 42729 ft 473 kts 246°
2026-05-04 12:17 41.02573 -91.85639 42721 ft 473 kts 246°
2026-05-04 12:17 40.99482 -91.93352 42709 ft 473 kts 246°
2026-05-04 12:18 40.96397 -92.01033 42719 ft 473 kts 246°
2026-05-04 12:18 40.93304 -92.08711 42715 ft 472 kts 246°
2026-05-04 12:19 40.90208 -92.16380 42712 ft 472 kts 246°
2026-05-04 12:19 40.87109 -92.24035 42721 ft 472 kts 246°
2026-05-04 12:20 40.84006 -92.31680 42719 ft 472 kts 246°
2026-05-04 12:20 40.80916 -92.39273 42716 ft 472 kts 246°
2026-05-04 12:21 40.77802 -92.46907 42716 ft 472 kts 246°
2026-05-04 12:21 40.74684 -92.54530 42723 ft 472 kts 246°
2026-05-04 12:22 40.71559 -92.62152 42726 ft 472 kts 245°
2026-05-04 12:22 40.68454 -92.69707 42727 ft 471 kts 246°
2026-05-04 12:23 40.65532 -92.77425 42734 ft 470 kts 248°
2026-05-04 12:23 40.62604 -92.85138 42735 ft 470 kts 247°
2026-05-04 12:24 40.59681 -92.92838 42734 ft 470 kts 248°
2026-05-04 12:24 40.56767 -93.00490 42732 ft 470 kts 247°
2026-05-04 12:25 40.53834 -93.08168 42726 ft 470 kts 247°
2026-05-04 12:25 40.50893 -93.15853 42722 ft 470 kts 247°
2026-05-04 12:26 40.47944 -93.23534 42717 ft 470 kts 247°
2026-05-04 12:26 40.45001 -93.31207 42712 ft 469 kts 248°
2026-05-04 12:27 40.42603 -93.39142 42724 ft 466 kts 252°
2026-05-04 12:27 40.40220 -93.47052 42730 ft 466 kts 252°
2026-05-04 12:28 40.37886 -93.54927 42716 ft 467 kts 252°
2026-05-04 12:28 40.35501 -93.62861 42708 ft 467 kts 252°
2026-05-04 12:29 40.33125 -93.70788 42707 ft 467 kts 252°
2026-05-04 12:29 40.30738 -93.78707 42702 ft 467 kts 252°
2026-05-04 12:30 40.28347 -93.86624 42704 ft 467 kts 252°
2026-05-04 12:30 40.25969 -93.94474 42702 ft 466 kts 252°
2026-05-04 12:31 40.23566 -94.02381 42704 ft 467 kts 252°
2026-05-04 12:31 40.21160 -94.10274 42701 ft 467 kts 252°
2026-05-04 12:32 40.17543 -94.22098 42701 ft 466 kts 252°
2026-05-04 12:33 40.15127 -94.29967 42692 ft 467 kts 252°
2026-05-04 12:33 40.12706 -94.37831 42696 ft 467 kts 252°
2026-05-04 12:34 40.10276 -94.45698 42691 ft 467 kts 252°
2026-05-04 12:34 40.07846 -94.53548 42692 ft 467 kts 252°
2026-05-04 12:35 40.05418 -94.61363 42686 ft 467 kts 252°
2026-05-04 12:35 40.02975 -94.69207 42690 ft 467 kts 252°
2026-05-04 12:36 40.00522 -94.77060 42697 ft 467 kts 252°
2026-05-04 12:36 39.98065 -94.84902 42700 ft 467 kts 252°
2026-05-04 12:37 39.95602 -94.92740 42706 ft 467 kts 252°
2026-05-04 12:37 39.93150 -95.00522 42708 ft 467 kts 252°
2026-05-04 12:38 39.90678 -95.08345 42706 ft 467 kts 252°
2026-05-04 12:38 39.88197 -95.16175 42691 ft 467 kts 252°
2026-05-04 12:39 39.85703 -95.24029 41998 ft 473 kts 251°
2026-05-04 12:39 39.84446 -95.27971 41376 ft 469 kts 251°
2026-05-04 12:39 39.83212 -95.31831 40768 ft 465 kts 251°
2026-05-04 12:39 39.81974 -95.35707 40155 ft 462 kts 251°
2026-05-04 12:40 39.80665 -95.39525 39549 ft 461 kts 249°
2026-05-04 12:40 39.79347 -95.43312 38947 ft 459 kts 249°
2026-05-04 12:40 39.78040 -95.47091 38338 ft 458 kts 249°
2026-05-04 12:40 39.76731 -95.50875 37683 ft 455 kts 249°
2026-05-04 12:41 39.75429 -95.54616 37083 ft 454 kts 249°
2026-05-04 12:41 39.74130 -95.58340 36485 ft 453 kts 249°
2026-05-04 12:41 39.72830 -95.62072 35885 ft 452 kts 249°
2026-05-04 12:41 39.71532 -95.65795 35289 ft 451 kts 249°
2026-05-04 12:42 39.70239 -95.69495 34700 ft 450 kts 249°
2026-05-04 12:42 39.68959 -95.73152 34114 ft 450 kts 249°
2026-05-04 12:42 39.67665 -95.76846 33499 ft 449 kts 249°
2026-05-04 12:42 39.66375 -95.80524 32900 ft 446 kts 249°
2026-05-04 12:43 39.65091 -95.84179 32314 ft 443 kts 249°
2026-05-04 12:43 39.63807 -95.87828 31728 ft 440 kts 249°
2026-05-04 12:43 39.62539 -95.91430 31148 ft 438 kts 249°
2026-05-04 12:43 39.61318 -95.94893 30596 ft 435 kts 249°
2026-05-04 12:44 39.60117 -95.98297 30062 ft 432 kts 249°
2026-05-04 12:44 39.58869 -96.01828 29447 ft 428 kts 249°
2026-05-04 12:44 39.57633 -96.05321 28895 ft 423 kts 249°
2026-05-04 12:44 39.56413 -96.08764 28344 ft 418 kts 249°
2026-05-04 12:45 39.55205 -96.12172 27801 ft 413 kts 249°
2026-05-04 12:45 39.54003 -96.15558 27258 ft 409 kts 249°
2026-05-04 12:45 39.52834 -96.18848 26730 ft 405 kts 249°
2026-05-04 12:45 39.51657 -96.22155 26206 ft 400 kts 249°
2026-05-04 12:46 39.50494 -96.25418 25685 ft 396 kts 249°
2026-05-04 12:46 39.49341 -96.28652 25166 ft 392 kts 249°
2026-05-04 12:46 39.48199 -96.31850 24657 ft 389 kts 249°
2026-05-04 12:46 39.47067 -96.35017 24146 ft 386 kts 249°
2026-05-04 12:47 39.45953 -96.38132 23647 ft 384 kts 249°
2026-05-04 12:47 39.44834 -96.41255 23125 ft 382 kts 249°
2026-05-04 12:47 39.43723 -96.44353 22611 ft 378 kts 249°
2026-05-04 12:47 39.42620 -96.47425 22115 ft 373 kts 249°
2026-05-04 12:48 39.41534 -96.50448 21633 ft 369 kts 249°
2026-05-04 12:48 39.40456 -96.53444 21153 ft 365 kts 249°
2026-05-04 12:48 39.39389 -96.56410 20684 ft 361 kts 249°
2026-05-04 12:48 39.38333 -96.59340 20206 ft 358 kts 249°
2026-05-04 12:49 39.37295 -96.62215 19746 ft 355 kts 249°
2026-05-04 12:49 39.36255 -96.65095 19287 ft 352 kts 248°
2026-05-04 12:49 39.35220 -96.67960 18815 ft 350 kts 248°
2026-05-04 12:49 39.34193 -96.70797 18362 ft 348 kts 248°
2026-05-04 12:50 39.33172 -96.73616 17897 ft 346 kts 248°
2026-05-04 12:50 39.32156 -96.76420 17421 ft 343 kts 248°
2026-05-04 12:50 39.31148 -96.79195 16976 ft 339 kts 248°
2026-05-04 12:50 39.30162 -96.81910 16536 ft 336 kts 248°
2026-05-04 12:51 39.29170 -96.84640 16092 ft 334 kts 248°
2026-05-04 12:51 39.28185 -96.87346 15647 ft 332 kts 248°
2026-05-04 12:51 39.27203 -96.90043 15243 ft 331 kts 248°
2026-05-04 12:51 39.26238 -96.92687 15071 ft 325 kts 248°
2026-05-04 12:52 39.25264 -96.95362 14652 ft 333 kts 248°
2026-05-04 12:52 39.24270 -96.98089 14208 ft 340 kts 248°
2026-05-04 12:52 39.23251 -97.00874 13746 ft 346 kts 247°
2026-05-04 12:52 39.22216 -97.03698 13267 ft 350 kts 247°
2026-05-04 12:53 39.21169 -97.06556 12787 ft 353 kts 247°
2026-05-04 12:53 39.20119 -97.09423 12318 ft 354 kts 247°
2026-05-04 12:53 39.19062 -97.12302 11848 ft 356 kts 247°
2026-05-04 12:53 39.18014 -97.15155 11383 ft 357 kts 247°
2026-05-04 12:54 39.16948 -97.18054 10907 ft 358 kts 247°
2026-05-04 12:54 39.15881 -97.20954 10432 ft 359 kts 246°
2026-05-04 12:54 39.14809 -97.23863 9959 ft 359 kts 246°
2026-05-04 12:54 39.13734 -97.26776 9475 ft 360 kts 246°
2026-05-04 12:55 39.12659 -97.29687 8989 ft 358 kts 246°
2026-05-04 12:55 39.11610 -97.32522 8523 ft 338 kts 246°
2026-05-04 12:55 39.10956 -97.34286 8245 ft 320 kts 246°
2026-05-04 12:55 39.10033 -97.36783 7845 ft 298 kts 246°
2026-05-04 12:56 39.09166 -97.39125 7472 ft 281 kts 246°
2026-05-04 12:56 39.08345 -97.41341 7119 ft 268 kts 247°
2026-05-04 12:56 39.07563 -97.43454 6791 ft 263 kts 247°
2026-05-04 12:56 39.06771 -97.45592 6449 ft 266 kts 247°
2026-05-04 12:57 39.05969 -97.47750 6095 ft 267 kts 246°
2026-05-04 12:57 39.05170 -97.49900 5751 ft 266 kts 246°
2026-05-04 12:57 39.04371 -97.52049 5398 ft 266 kts 246°
2026-05-04 12:57 39.03571 -97.54197 5047 ft 266 kts 246°
2026-05-04 12:58 39.02775 -97.56334 4701 ft 265 kts 246°
2026-05-04 12:58 39.01981 -97.58465 4350 ft 264 kts 246°
2026-05-04 12:58 39.01192 -97.60578 4000 ft 260 kts 246°
2026-05-04 12:58 39.00375 -97.62624 3630 ft 253 kts 239°
2026-05-04 12:59 38.99101 -97.64077 3321 ft 245 kts 208°
2026-05-04 12:59 38.97539 -97.64623 3365 ft 224 kts 185°
2026-05-04 12:59 38.96041 -97.64618 3415 ft 208 kts 180°
2026-05-04 12:59 38.94628 -97.64622 3400 ft 194 kts 181°
2026-05-04 13:00 38.93334 -97.64627 3388 ft 183 kts 181°
2026-05-04 13:00 38.92067 -97.64624 3241 ft 179 kts 181°
2026-05-04 13:00 38.90847 -97.64621 3064 ft 167 kts 181°
2026-05-04 13:00 38.89756 -97.64616 2932 ft 149 kts 182°
2026-05-04 13:01 38.88745 -97.64615 2763 ft 143 kts 182°
2026-05-04 13:01 38.87770 -97.64612 2585 ft 138 kts 183°
2026-05-04 13:01 38.86815 -97.64616 2407 ft 137 kts 184°
2026-05-04 13:01 38.85873 -97.64609 2243 ft 134 kts 184°
2026-05-04 13:02 38.84951 -97.64605 2065 ft 131 kts 182°
2026-05-04 13:02 38.84050 -97.64595 1878 ft 128 kts 181°
2026-05-04 13:02 38.83162 -97.64595 1698 ft 126 kts 180°
2026-05-04 13:02 38.82289 -97.64588 1520 ft 124 kts 180°
2026-05-04 13:03 38.81432 -97.64591 1359 ft 121 kts 180°
2026-05-04 13:03 38.80608 -97.64591 1262 ft 113 kts 180°
2026-05-04 13:03 38.79920 -97.64592 1265 ft 76 kts 180°
2026-05-04 13:03 38.79600 -97.64590 1265 ft 22 kts 179°
2026-05-04 13:04 38.79482 -97.64578 1262 ft 14 kts 157°
2026-05-04 13:04 38.79460 -97.64485 1263 ft 9 kts 89°
2026-05-04 13:04 38.79458 -97.64406 1264 ft 9 kts 96°
2026-05-04 13:04 38.79426 -97.64360 1264 ft 7 kts 170°
2026-05-04 13:05 38.79381 -97.64346 1264 ft 5 kts 143°
2026-05-04 13:05 38.79354 -97.64299 1269 ft 7 kts 113°
2026-05-04 13:05 38.79351 -97.64218 1269 ft 10 kts 85°
2026-05-04 13:05 38.79339 -97.64136 1268 ft 8 kts 148°
2026-05-04 13:06 38.79332 -97.64135 1265 ft 0 kts 178°